sat.trackr.live / text

‹ back to catalog

STARLINK-31512

NORAD 59500 · 2024-071S

PAYLOAD ACTIVE UNKNOWN

§ Identity

Operator
Country
US
Launch date
2024-04-13
Launch site
AFETR
Launch vehicle
Mass (kg)
RCS (m²)

Purposes: comms

External: N2YO · Heavens-Above · Gunter

§ Orbital elements

Epoch: 2026-05-25T04:59:01.785984Z

Period
94.27 min
Inclination
43.0006°
Eccentricity
0.0001034
Mean motion
15.27579578 rev/d
Perigee alt
482.3 km
Apogee alt
483.8 km
Semi-major
6,861.2 km
B*
-2.2702e-5
RAAN
227.4621°
Arg perigee
254.1560°
Mean anomaly
105.9178°
Rev number
12,036

§ Raw data

STARLINK-315121 59500U 24071S   26145.20765956 -.00000887  00000+0 -22702-4 0  99922 59500  43.0006 227.4621 0001034 254.1560 105.9178 15.27579578120368

JSON: /api/v1/satellites/59500 · /tle

For live sub-satellite position, see the globe view (requires WebGL).

§ Visibility from observer

Set your observer location to see the next 7 days of passes ≥ 10°. The values pass through the URL so the page stays shareable.

No JS? Fill the form by hand. The geolocation button needs JavaScript.